Rugby, ND

11:09 PM CDT on June 28, 2017 (GMT -0500)
Rugby Municipal

Weather History for KRUG - January, 2014

Change the Weather History Date:

Friday, January 3, 2014

  Actual Average Record
Temperature  
Mean Temperature 20 °F -  
Max Temperature 33 °F 15 °F 41 °F (2012)
Min Temperature 8 °F -4 °F -31 °F (1982)
Degree Days  
Heating Degree Days 44    
Moisture  
Dew Point 15 °F    
Average Humidity 89    
Maximum Humidity 100    
Minimum Humidity 79    
Precipitation  
Precipitation 2.13 in - - ()
Sea Level Pressure  
Sea Level Pressure 29.41 in    
Wind  
Wind Speed 14 mph (South)    
Max Wind Speed 26 mph    
Max Gust Speed 37 mph    
Visibility 7 miles    
Events Rain , Snow    
Averages and records for this station are not official NWS values.
T = Trace of Precipitation, MM = Missing Value Source: NWS Daily Summary

Daily Weather History Graph

Daily Weather History Graph

Search for Another Location

Airport or City:

Trip Planner

Search our weather history database for the weather conditions in past years. The results will help you decide how hot, cold, wet, or windy it might be!

Date:

Astronomy

Jan. 03, 2014 Rise Set
Actual Time 8:31 AM CST 4:58 PM CST
Civil Twilight 7:54 AM CST 5:34 PM CST
Nautical Twilight 7:15 AM CST 6:14 PM CST
Astronomical Twilight 6:37 AM CST 6:52 PM CST
Moon 9:44 AM CST (1/3) 8:26 PM CST (1/3)
Length of Visible Light 9h 39m
Length of Day
8h 26m
Waxing Crescent, 8% of the Moon is Illuminated
Jan 3
Waxing Crescent
Jan 7
First Quarter
Jan 15
Full
Jan 23
Last Quarter
Jan 30
New

Hourly Weather History & Observations

Time (CST) Temp. Windchill Dew Point Humidity Pressure Visibility Wind Dir Wind Speed Gust Speed Precip Events Conditions
12:15 AM 8.6 °F -10.0 °F 5.0 °F 85% 29.72 in 5.0 mi South 18.4 mph - N/A   Overcast
12:35 AM 8.6 °F -9.5 °F 6.8 °F 92% 29.70 in 5.0 mi South 17.3 mph 28.8 mph N/A   Overcast
12:55 AM 8.6 °F -10.0 °F 6.8 °F 92% 29.68 in 7.0 mi South 18.4 mph 26.5 mph N/A   Mostly Cloudy
1:15 AM 8.6 °F -8.3 °F 6.8 °F 92% 29.66 in 9.0 mi South 15.0 mph 21.9 mph N/A   Partly Cloudy
1:35 AM 10.4 °F -7.7 °F 6.8 °F 85% 29.63 in 9.0 mi South 18.4 mph 24.2 mph N/A   Clear
1:55 AM 10.4 °F -6.6 °F 6.8 °F 85% 29.61 in 10.0 mi South 16.1 mph 23.0 mph N/A   Clear
2:15 AM 10.4 °F -5.4 °F 6.8 °F 85% 29.61 in 10.0 mi SSW 13.8 mph 23.0 mph N/A   Clear
2:35 AM 10.4 °F -6.0 °F 6.8 °F 85% 29.60 in 10.0 mi SSW 15.0 mph 21.9 mph N/A   Partly Cloudy
2:55 AM 10.4 °F -6.0 °F 6.8 °F 85% 29.58 in 10.0 mi South 15.0 mph 19.6 mph N/A   Partly Cloudy
3:15 AM 10.4 °F -6.0 °F 8.6 °F 92% 29.54 in 10.0 mi South 15.0 mph 23.0 mph N/A   Scattered Clouds
3:35 AM 12.2 °F -2.5 °F 8.6 °F 85% 29.54 in 10.0 mi South 12.7 mph 20.7 mph N/A   Mostly Cloudy
3:55 AM 12.2 °F -1.0 °F 8.6 °F 85% 29.53 in 10.0 mi South 10.4 mph - N/A   Mostly Cloudy
4:15 AM 14.0 °F -0.8 °F 10.4 °F 86% 29.50 in 10.0 mi South 13.8 mph 18.4 mph N/A   Mostly Cloudy
4:35 AM 14.0 °F 0.5 °F 10.4 °F 86% 29.49 in 10.0 mi South 11.5 mph - N/A   Mostly Cloudy
4:55 AM 14.0 °F -0.2 °F 10.4 °F 86% 29.48 in 10.0 mi South 12.7 mph 17.3 mph N/A   Mostly Cloudy
5:15 AM 15.8 °F 3.4 °F 12.2 °F 86% 29.46 in 10.0 mi South 10.4 mph 16.1 mph N/A   Mostly Cloudy
5:35 AM 15.8 °F 3.4 °F 12.2 °F 86% 29.44 in 10.0 mi South 10.4 mph - N/A   Mostly Cloudy
5:55 AM 15.8 °F 5.1 °F 12.2 °F 86% 29.43 in 10.0 mi South 8.1 mph - N/A   Partly Cloudy
6:15 AM 15.8 °F 3.4 °F 12.2 °F 86% 29.41 in 10.0 mi South 10.4 mph - N/A   Clear
6:35 AM 15.8 °F 5.1 °F 12.2 °F 86% 29.40 in 10.0 mi South 8.1 mph - N/A   Clear
6:55 AM 15.8 °F 4.2 °F 12.2 °F 86% 29.38 in 10.0 mi South 9.2 mph - N/A   Clear
7:15 AM 15.8 °F 5.1 °F 14.0 °F 93% 29.36 in 10.0 mi South 8.1 mph - N/A   Clear
7:35 AM 15.8 °F 5.1 °F 14.0 °F 93% 29.36 in 10.0 mi South 8.1 mph - N/A   Clear
7:55 AM 17.6 °F 8.2 °F 14.0 °F 86% 29.34 in 10.0 mi South 6.9 mph - N/A   Clear
8:15 AM 17.6 °F 9.3 °F 15.8 °F 93% 29.34 in 10.0 mi SSE 5.8 mph - N/A   Clear
8:35 AM 17.6 °F 10.7 °F 15.8 °F 93% 29.33 in 10.0 mi SSE 4.6 mph - N/A   Clear
8:55 AM 19.4 °F 14.3 °F 15.8 °F 86% 29.32 in 10.0 mi SE 3.5 mph - N/A   Clear
9:15 AM 19.4 °F 11.5 °F 15.8 °F 86% 29.31 in 10.0 mi SE 5.8 mph - N/A   Clear
9:35 AM 19.4 °F 10.4 °F 17.6 °F 93% 29.29 in 10.0 mi SE 6.9 mph - N/A   Partly Cloudy
9:55 AM 21.2 °F 13.6 °F 17.6 °F 86% 29.29 in 10.0 mi SSE 5.8 mph - N/A   Partly Cloudy
10:15 AM 23.0 °F 17.0 °F 19.4 °F 86% 29.28 in 10.0 mi SSE 4.6 mph - N/A   Clear
10:35 AM 23.0 °F 15.8 °F 19.4 °F 86% 29.27 in 10.0 mi SSE 5.8 mph - N/A   Clear
10:55 AM 24.8 °F 19.1 °F 19.4 °F 80% 29.26 in 10.0 mi South 4.6 mph - N/A   Partly Cloudy
11:15 AM 24.8 °F 17.9 °F 21.2 °F 86% 29.24 in 10.0 mi SSE 5.8 mph - N/A   Clear
11:35 AM 24.8 °F 17.9 °F 23.0 °F 93% 29.22 in 10.0 mi SSE 5.8 mph - N/A   Partly Cloudy
11:55 AM 26.6 °F 20.0 °F 23.0 °F 86% 29.21 in 10.0 mi SSE 5.8 mph - N/A   Scattered Clouds
12:15 PM 26.6 °F 19.1 °F 24.8 °F 93% 29.19 in 10.0 mi South 6.9 mph - N/A   Partly Cloudy
12:35 PM 28.4 °F 20.4 °F 24.8 °F 86% 29.19 in 10.0 mi South 8.1 mph - N/A   Clear
12:55 PM 32.0 °F 26.4 °F 26.6 °F 80% 29.18 in 10.0 mi South 5.8 mph - N/A   Clear
1:15 PM 32.0 °F 28.7 °F 30.2 °F 93% 29.17 in 9.0 mi SSW 3.5 mph - N/A   Scattered Clouds
1:35 PM 33.8 °F 28.6 °F 32.0 °F 93% 29.16 in 5.0 mi WSW 5.8 mph - N/A Rain Light Rain
1:55 PM 33.8 °F 29.6 °F 32.0 °F 93% 29.16 in 5.0 mi West 4.6 mph - 0.01 in Rain Light Rain
2:15 PM 32.0 °F - 32.0 °F 100% 29.16 in 5.0 mi Calm Calm - N/A Rain Light Rain
2:35 PM 32.0 °F - 32.0 °F 100% 29.16 in 4.0 mi Calm Calm - 0.01 in Rain Light Rain
2:55 PM 32.0 °F 25.6 °F 32.0 °F 100% 29.16 in 7.0 mi NNE 6.9 mph - 0.01 in   Partly Cloudy
3:15 PM 32.0 °F 24.2 °F 32.0 °F 100% 29.15 in 5.0 mi NE 9.2 mph - N/A   Mostly Cloudy
3:35 PM 28.4 °F 17.5 °F 28.4 °F 100% 29.16 in 7.0 mi NE 13.8 mph - N/A   Overcast
3:55 PM 26.6 °F 14.7 °F 26.6 °F 100% 29.18 in 3.0 mi NE 15.0 mph - N/A Rain Light Freezing Rain
4:15 PM 26.6 °F 12.7 °F 24.8 °F 93% 29.19 in 1.0 mi NE 20.7 mph - 0.01 in   Overcast
4:35 PM 23.0 °F 6.9 °F 23.0 °F 100% 29.22 in 0.5 mi NNE 24.2 mph - 0.11 in Rain Light Freezing Rain
4:55 PM 19.4 °F 2.5 °F 19.4 °F 100% 29.25 in 0.2 mi NNE 23.0 mph 28.8 mph 0.25 in Snow Heavy Snow
5:15 PM 17.6 °F -1.0 °F 17.6 °F 100% 29.27 in 0.5 mi NNE 26.5 mph - 0.07 in Rain Light Freezing Rain
5:35 PM 14.0 °F -4.7 °F 14.0 °F 100% 29.30 in 0.8 mi North 23.0 mph 32.2 mph 0.21 in Snow Light Snow
5:55 PM 14.0 °F -4.3 °F 10.4 °F 86% 29.33 in 1.0 mi NNE 21.9 mph - 0.31 in Snow Light Snow
6:15 PM 14.0 °F -5.1 °F 10.4 °F 86% 29.36 in 1.0 mi North 24.2 mph - 0.11 in Snow Light Snow
6:35 PM 12.2 °F -5.3 °F 8.6 °F 85% 29.39 in 1.2 mi North 18.4 mph - 0.30 in Snow Light Snow
6:55 PM 12.2 °F -7.5 °F 8.6 °F 85% 29.41 in 1.2 mi North 24.2 mph 32.2 mph 0.52 in Snow Light Snow
7:15 PM 10.4 °F -8.2 °F 8.6 °F 92% 29.44 in 0.5 mi North 19.6 mph 36.8 mph 0.43 in Snow Snow
7:35 PM 10.4 °F -9.9 °F 8.6 °F 92% 29.46 in 1.2 mi North 24.2 mph 29.9 mph 0.99 in Snow Light Snow
7:55 PM 10.4 °F -9.9 °F 6.8 °F 85% 29.48 in 3.0 mi North 24.2 mph 28.8 mph 1.01 in Rain Light Freezing Rain
8:15 PM 10.4 °F -9.1 °F 6.8 °F 85% 29.50 in 6.0 mi North 21.9 mph - N/A Snow Light Snow
8:35 PM 10.4 °F -6.6 °F 6.8 °F 85% 29.54 in 7.0 mi NNW 16.1 mph - N/A   Partly Cloudy
8:55 PM 10.4 °F -8.2 °F 6.8 °F 85% 29.56 in 8.0 mi NNW 19.6 mph - N/A Snow Light Snow
9:15 PM 10.4 °F -9.5 °F 6.8 °F 85% 29.58 in 5.0 mi NNW 23.0 mph 27.6 mph N/A Snow Light Snow
9:35 PM 12.2 °F -5.3 °F 6.8 °F 79% 29.61 in 5.0 mi North 18.4 mph 28.8 mph N/A Rain Light Freezing Rain
9:55 PM 10.4 °F -6.6 °F 6.8 °F 85% 29.63 in 10.0 mi NNW 16.1 mph - N/A Snow Light Snow
10:15 PM 10.4 °F -6.0 °F 8.6 °F 92% 29.65 in 10.0 mi NW 15.0 mph - N/A Snow Light Snow
10:35 PM 10.4 °F -6.6 °F 6.8 °F 85% 29.67 in 10.0 mi NW 16.1 mph - N/A   Overcast
10:55 PM 10.4 °F -8.2 °F 8.6 °F 92% 29.68 in 9.0 mi NNW 19.6 mph - N/A Snow Light Snow
11:15 PM 12.2 °F -5.3 °F 8.6 °F 85% 29.69 in 7.0 mi NW 18.4 mph - N/A Snow Light Snow
11:35 PM 10.4 °F -8.2 °F 8.6 °F 92% 29.71 in 7.0 mi NW 19.6 mph - 0.01 in Snow Light Snow
11:55 PM 12.2 °F -5.8 °F 8.6 °F 85% 29.71 in 7.0 mi NW 19.6 mph - 0.02 in Snow Light Snow